Weather in Bonito

Brazil     1°23′25″S   47°18′02″W
temp.,
°C
wind,
m/s
gust,
m/s
humid.,
%
clouds,
%
prec.,
mm/h
press.,
hPa
HPBL,
m
25 february, thu
thu2500:00+23e259879 0.0 1011152
03:00+23ene249873 0.1 1009147
06:00+22e129857 0.0 101053
09:00+27ene368454 0.0 1011737
12:00+30ene357467 1.4 1011989
15:00+28ne468450 6.5 1008877
18:00+26ne378837 0.6 1008622
21:00+23ne279653 0.6 1010256
26 february, fri
fri2600:00+23ne139896 0.0 101193
03:00+23ne129898 0.0 100866
06:00+22ne1298100 0.0 100930
09:00+26ne368595 0.1 1011698
12:00+28ne467888 1.5 1010967
15:00+28ne467982 3.6 1007934
18:00+25ne268953 0.9 1007542
21:00+23ne139775 0.9 100997
27 february, sat
sat2700:00+23ene249865 0.0 1010128
03:00+23ene129865 0.1 100847
06:00+22ene229884 0.0 100976
09:00+27ene368249 0.1 1011723
12:00+29ne357425 1.8 10101038
15:00+28ne358433 7.3 1007811
18:00+25ne369390 2.8 1008418
21:00+23ne289795 3.4 1009328
28 february, sun
sun2800:00+23ne2797100 0.1 1010272
03:00+23ene269897 1.2 1008245
06:00+23ene129892 1.2 100868
09:00+26e138990 1.6 1010315
12:00+28ene467941 3.1 1009992
15:00+28ne368340 6.3 1006842
18:00+25ne379397 2.7 1006541
21:00+24ne399797 6.4 1008396
1 march, mon
mon100:00+23ne1798100 3.1 1008284
03:00+23ne2898100 10.9 1006294
06:00+22ene269992 8.6 1006207
09:00+26ene378883 12.3 1009604
12:00+25ne279298 4.3 1008398
15:00+26ne379099 8.1 1006564
18:00+25nne289358 4.8 1006321
21:00+23e289678 9.8 1008251